Regional Weather Roundup
Issued by NWS Midland/Odessa, TX

Skip options and go directly to product.
Home | Oldest Version | Next Version | Current Version | All | Text Only | Save Text | Print | Product List | Glossary On

Skip product version selection by date and time.   
894
ASUS44 KMAF 290502
RWRMAF
MIDLAND AREA WEATHER ROUNDUP
NATIONAL WEATHER SERVICE MIDLAND TX
1200 AM CDT TUE JUL 29 2014

...IN SOUTHWEST TEXAS AND SOUTHEAST NEW MEXICO...

CITY           SKY/WX    TMP DP  RH WIND       PRES   REMARKS
ALPINE         CLEAR     76  51  41 CALM      30.31R
ANDREWS        FAIR      80  63  56 E17G24    30.21S
ARTESIA        PTCLDY    82  61  47 SE15      30.19S
BIG SPRING     PTCLDY    83  63  50 E15       30.20S
CARLSBAD       CLEAR     84  61  45 E16G23    30.16R
DRYDEN           N/A     88  58  36 E10       30.10R
FORT STOCKTON  CLEAR     83  51  33 SE12      30.16R
GUAD PASS      PTCLDY    74  53  48 NE18      30.33R
HOBBS          CLEAR     77  63  61 E15G22    30.24R
MARFA          CLEAR     66  55  68 NE5       30.30R
MIDLAND AIRPK  CLEAR     82  64  55 E8        30.19S
MIDLAND INTL   CLEAR     82  65  56 E15       30.18R
ODESSA         CLEAR     82  63  52 E17       30.19S
PECOS          CLEAR     85  62  45 E12       30.12R
PRESIDIO       FAIR      87  49  26 MISG      30.09R
SEMINOLE       CLEAR     78  62  58 E12       30.23S
SNYDER         CLEAR     79  61  53 E10       30.21S
WINK           CLEAR     84  65  52 E18G30    30.14R
$$
...OTHER STATIONS IN TEXAS...

CITY           SKY/WX    TMP DP  RH WIND       PRES   REMARKS
ABILENE        PTCLDY    80  63  55 E9        30.18R
AMARILLO       MOCLDY    66  63  90 SE6       30.29S
AUSTIN         PTCLDY    81  69  67 CALM      30.06R
BROWNSVILLE    CLEAR     78  75  90 E5        30.07S
CORPUS CHRISTI PTCLDY    80  75  84 S10       30.05S
DALLAS FTW     PTCLDY    79  62  56 N7        30.12R
DEL RIO        CLEAR     86  63  45 E8        30.03R
EL PASO        MOCLDY    87  53  31 N12       30.16R
HOUSTON INT    CLOUDY    84  71  65 SW6       30.04R
LUBBOCK        MOCLDY    72  63  73 E9        30.25S
SAN ANGELO     PTCLDY    83  66  56 E10       30.14R
SAN ANTONIO    PTCLDY    85  70  60 S8        30.08R
WACO           PTCLDY    76  71  85 N6        30.09R
WICHITA FALLS  NOT AVBL
$$
...OTHER LOCATIONS IN NEW MEXICO...

CITY           SKY/WX    TMP DP  RH WIND       PRES   REMARKS
ALAMAGORDO     CLOUDY    77  63  61 W12       30.22R
ALBUQUERQUE    CLOUDY    73  58  59 E8        30.33R
CANNON AFB     CLOUDY    70  70 100 E8        30.29F
CLOVIS         NOT AVBL
HOLLOMAN AFB   MOCLDY    77  63  61 NW15      30.21R
ROSWELL        TSTM      74  66  76 NW20G25   30.22R
RUIDOSO        CLOUDY    64  59  82 S6        30.45S
SANTA FE       CLOUDY    65  57  75 SE9       30.42S
TRUTH OR CONSE CLOUDY    74  59  59 SE9       30.27F
TUCUMCARI      MOCLDY    71  58  63 S3        30.26F
$$

USA.gov is the U.S. government's official web portal to all federal, state and local government web resources and services.